date,time,SUV Intensity [MED/Hr],UV Index,Daily total [MED],Since Last [MED]
17/04/2022,00:08:01,0.000,0.0,0.0,0.0
17/04/2022,00:09:09,0.001,0.0,0.0,0.0
17/04/2022,00:11:01,0.000,0.0,0.0,0.0
17/04/2022,00:12:00,0.000,0.0,0.0,0.0
17/04/2022,00:13:00,-0.001,0.0,0.0,0.0
17/04/2022,00:14:00,0.000,0.0,0.0,0.0
17/04/2022,00:15:01,-0.000,0.0,0.0,0.0
17/04/2022,00:16:01,0.000,0.0,0.0,0.0
17/04/2022,00:17:00,0.000,0.0,0.0,0.0
17/04/2022,00:18:01,0.000,0.0,0.0,0.0
17/04/2022,00:19:26,0.000,0.0,0.0,0.0
17/04/2022,00:21:01,0.000,0.0,0.0,0.0
17/04/2022,00:22:00,-0.001,0.0,0.0,0.0
17/04/2022,00:23:01,0.000,0.0,0.0,0.0
17/04/2022,00:24:01,0.000,0.0,0.0,0.0
17/04/2022,00:25:09,-0.001,0.0,0.0,0.0
17/04/2022,00:27:01,0.000,0.0,0.0,0.0
17/04/2022,00:28:00,-0.001,0.0,0.0,0.0
17/04/2022,00:29:01,-0.001,0.0,0.0,0.0
17/04/2022,00:30:01,0.001,0.0,0.0,0.0
17/04/2022,00:31:01,-0.000,0.0,0.0,0.0
17/04/2022,00:32:00,0.001,0.0,0.0,0.0
17/04/2022,00:33:00,0.001,0.0,0.0,0.0
17/04/2022,00:34:01,0.000,0.0,0.0,0.0
17/04/2022,00:35:00,0.000,0.0,0.0,0.0
17/04/2022,00:36:00,0.000,0.0,0.0,0.0
17/04/2022,00:37:02,-0.000,0.0,0.0,0.0
17/04/2022,00:38:00,0.000,0.0,0.0,0.0
17/04/2022,00:39:01,0.000,0.0,0.0,0.0
17/04/2022,00:40:01,0.001,0.0,0.0,0.0
17/04/2022,00:41:00,0.000,0.0,0.0,0.0
17/04/2022,00:42:00,-0.001,0.0,0.0,0.0
17/04/2022,00:43:01,0.000,0.0,0.0,0.0
17/04/2022,00:44:00,0.000,0.0,0.0,0.0
17/04/2022,00:45:00,0.000,0.0,0.0,0.0
17/04/2022,00:46:00,0.000,0.0,0.0,0.0
17/04/2022,00:47:00,0.000,0.0,0.0,0.0
17/04/2022,00:48:01,0.000,0.0,0.0,0.0
17/04/2022,00:49:01,0.000,0.0,0.0,0.0
17/04/2022,00:50:00,0.000,0.0,0.0,0.0
17/04/2022,00:51:01,-0.001,0.0,0.0,0.0
17/04/2022,00:52:00,0.000,0.0,0.0,0.0
17/04/2022,00:53:08,0.000,0.0,0.0,0.0
17/04/2022,00:55:01,0.000,0.0,0.0,0.0
17/04/2022,00:56:00,0.000,0.0,0.0,0.0
17/04/2022,00:57:01,0.000,0.0,0.0,0.0
17/04/2022,00:58:02,0.000,0.0,0.0,0.0
17/04/2022,00:59:01,0.002,0.0,0.0,0.0
17/04/2022,01:00:00,0.000,0.0,0.0,0.0
17/04/2022,01:01:00,0.000,0.0,0.0,0.0
17/04/2022,01:02:00,0.000,0.0,0.0,0.0
17/04/2022,01:03:02,0.000,0.0,0.0,0.0
17/04/2022,01:04:01,0.000,0.0,0.0,0.0
17/04/2022,01:05:00,0.001,0.0,0.0,0.0
17/04/2022,01:06:09,0.001,0.0,0.0,0.0
17/04/2022,01:07:00,0.001,0.0,0.0,0.0
17/04/2022,01:08:01,0.001,0.0,0.0,0.0
17/04/2022,01:09:00,0.000,0.0,0.0,0.0
17/04/2022,01:10:01,0.001,0.0,0.0,0.0
17/04/2022,01:11:09,0.000,0.0,0.0,0.0
17/04/2022,01:12:00,0.000,0.0,0.0,0.0
17/04/2022,01:13:01,0.000,0.0,0.0,0.0
17/04/2022,01:14:01,0.001,0.0,0.0,0.0
17/04/2022,01:15:01,0.001,0.0,0.0,0.0
17/04/2022,01:16:16,0.000,0.0,0.0,0.0
17/04/2022,01:18:01,0.000,0.0,0.0,0.0
17/04/2022,01:19:00,0.000,0.0,0.0,0.0
17/04/2022,01:20:01,0.001,0.0,0.0,0.0
17/04/2022,01:21:01,-0.000,0.0,0.0,0.0
17/04/2022,01:22:00,0.000,0.0,0.0,0.0
17/04/2022,01:23:10,0.001,0.0,0.0,0.0
17/04/2022,01:25:02,0.001,0.0,0.0,0.0
17/04/2022,01:26:01,0.001,0.0,0.0,0.0
17/04/2022,01:27:00,0.000,0.0,0.0,0.0
17/04/2022,01:28:01,0.001,0.0,0.0,0.0
17/04/2022,01:29:01,0.000,0.0,0.0,0.0
17/04/2022,01:30:00,0.001,0.0,0.0,0.0
17/04/2022,01:31:00,-0.000,0.0,0.0,0.0
17/04/2022,01:32:09,0.000,0.0,0.0,0.0
17/04/2022,01:33:00,0.000,0.0,0.0,0.0
17/04/2022,01:34:01,0.001,0.0,0.0,0.0
17/04/2022,01:35:09,0.001,0.0,0.0,0.0
17/04/2022,01:36:00,0.001,0.0,0.0,0.0
17/04/2022,01:37:00,-0.000,0.0,0.0,0.0
17/04/2022,01:38:01,-0.000,0.0,0.0,0.0
17/04/2022,01:39:01,0.001,0.0,0.0,0.0
17/04/2022,01:40:00,0.001,0.0,0.0,0.0
17/04/2022,01:41:01,0.001,0.0,0.0,0.0
17/04/2022,01:42:01,0.000,0.0,0.0,0.0
17/04/2022,01:43:01,0.001,0.0,0.0,0.0
17/04/2022,01:44:00,0.001,0.0,0.0,0.0
17/04/2022,01:45:09,-0.000,0.0,0.0,0.0
17/04/2022,01:47:02,0.000,0.0,0.0,0.0
17/04/2022,01:48:00,-0.000,0.0,0.0,0.0
17/04/2022,01:49:01,0.001,0.0,0.0,0.0
17/04/2022,01:50:00,0.001,0.0,0.0,0.0
17/04/2022,01:51:00,0.001,0.0,0.0,0.0
17/04/2022,01:52:00,0.001,0.0,0.0,0.0
17/04/2022,01:53:01,-0.000,0.0,0.0,0.0
17/04/2022,01:54:00,-0.000,0.0,0.0,0.0
17/04/2022,01:55:01,0.001,0.0,0.0,0.0
17/04/2022,01:56:01,0.001,0.0,0.0,0.0
17/04/2022,01:57:00,0.001,0.0,0.0,0.0
17/04/2022,01:58:09,0.001,0.0,0.0,0.0
17/04/2022,01:59:00,-0.000,0.0,0.0,0.0
17/04/2022,02:00:01,0.001,0.0,0.0,0.0
17/04/2022,02:01:08,0.002,0.0,0.0,0.0
17/04/2022,02:01:59,0.001,0.0,0.0,0.0
17/04/2022,02:03:00,0.002,0.0,0.0,0.0
17/04/2022,02:04:01,0.001,0.0,0.0,0.0
17/04/2022,02:05:00,0.002,0.0,0.0,0.0
17/04/2022,02:06:00,0.001,0.0,0.0,0.0
17/04/2022,02:07:01,0.001,0.0,0.0,0.0
17/04/2022,02:08:01,0.002,0.0,0.0,0.0
17/04/2022,02:09:02,0.001,0.0,0.0,0.0
17/04/2022,02:10:01,0.001,0.0,0.0,0.0
17/04/2022,02:11:00,0.001,0.0,0.0,0.0
17/04/2022,02:12:01,0.001,0.0,0.0,0.0
17/04/2022,02:13:01,0.001,0.0,0.0,0.0
17/04/2022,02:14:01,0.002,0.0,0.0,0.0
17/04/2022,02:15:00,0.001,0.0,0.0,0.0
17/04/2022,02:16:11,0.000,0.0,0.0,0.0
17/04/2022,02:18:01,0.001,0.0,0.0,0.0
17/04/2022,02:19:00,0.000,0.0,0.0,0.0
17/04/2022,02:20:00,0.002,0.0,0.0,0.0
17/04/2022,02:21:01,0.001,0.0,0.0,0.0
17/04/2022,02:22:01,0.001,0.0,0.0,0.0
17/04/2022,02:23:00,0.002,0.0,0.0,0.0
17/04/2022,02:24:01,0.002,0.0,0.0,0.0
17/04/2022,02:25:02,0.002,0.0,0.0,0.0
17/04/2022,02:26:00,0.001,0.0,0.0,0.0
17/04/2022,02:27:00,0.001,0.0,0.0,0.0
17/04/2022,02:28:01,0.001,0.0,0.0,0.0
17/04/2022,02:29:01,0.001,0.0,0.0,0.0
17/04/2022,02:30:00,0.001,0.0,0.0,0.0
17/04/2022,02:31:01,0.001,0.0,0.0,0.0
17/04/2022,02:32:01,0.002,0.0,0.0,0.0
17/04/2022,02:33:01,0.001,0.0,0.0,0.0
17/04/2022,02:34:01,0.001,0.0,0.0,0.0
17/04/2022,02:35:01,0.002,0.0,0.0,0.0
17/04/2022,02:36:09,0.001,0.0,0.0,0.0
17/04/2022,02:37:00,0.002,0.0,0.0,0.0
17/04/2022,02:38:01,0.001,0.0,0.0,0.0
17/04/2022,02:39:01,0.001,0.0,0.0,0.0
17/04/2022,02:40:01,0.001,0.0,0.0,0.0
17/04/2022,02:41:09,0.000,0.0,0.0,0.0
17/04/2022,02:43:01,0.002,0.0,0.0,0.0
17/04/2022,02:44:00,0.001,0.0,0.0,0.0
17/04/2022,02:45:01,0.002,0.0,0.0,0.0
17/04/2022,02:46:01,0.002,0.0,0.0,0.0
17/04/2022,02:47:02,0.002,0.0,0.0,0.0
17/04/2022,02:48:00,0.002,0.0,0.0,0.0
17/04/2022,02:49:01,0.002,0.0,0.0,0.0
17/04/2022,02:50:01,0.002,0.0,0.0,0.0
17/04/2022,02:51:01,0.002,0.0,0.0,0.0
17/04/2022,02:52:01,0.001,0.0,0.0,0.0
17/04/2022,02:53:00,0.002,0.0,0.0,0.0
17/04/2022,02:54:01,0.002,0.0,0.0,0.0
17/04/2022,02:55:01,0.002,0.0,0.0,0.0
17/04/2022,02:56:09,0.002,0.0,0.0,0.0
17/04/2022,02:57:00,0.002,0.0,0.0,0.0
17/04/2022,02:58:01,0.002,0.0,0.0,0.0
17/04/2022,02:59:09,0.001,0.0,0.0,0.0
17/04/2022,03:01:01,0.002,0.0,0.0,0.0
17/04/2022,03:02:00,0.002,0.0,0.0,0.0
17/04/2022,03:03:01,0.002,0.0,0.0,0.0
17/04/2022,03:04:01,0.002,0.0,0.0,0.0
17/04/2022,03:05:00,0.002,0.0,0.0,0.0
17/04/2022,03:06:00,0.002,0.0,0.0,0.0
17/04/2022,03:07:01,0.002,0.0,0.0,0.0
17/04/2022,03:08:01,0.002,0.0,0.0,0.0
17/04/2022,03:09:09,0.002,0.0,0.0,0.0
17/04/2022,03:10:01,0.001,0.0,0.0,0.0
17/04/2022,03:11:00,0.002,0.0,0.0,0.0
17/04/2022,03:12:01,0.002,0.0,0.0,0.0
17/04/2022,03:13:01,0.002,0.0,0.0,0.0
17/04/2022,03:14:01,0.002,0.0,0.0,0.0
17/04/2022,03:15:01,0.002,0.0,0.0,0.0
17/04/2022,03:16:01,0.002,0.0,0.0,0.0
17/04/2022,03:17:01,0.002,0.0,0.0,0.0
17/04/2022,03:18:01,0.002,0.0,0.0,0.0
17/04/2022,03:19:09,0.002,0.0,0.0,0.0
17/04/2022,03:20:01,0.002,0.0,0.0,0.0
17/04/2022,03:21:00,0.002,0.0,0.0,0.0
17/04/2022,03:22:09,0.002,0.0,0.0,0.0
17/04/2022,03:24:01,0.002,0.0,0.0,0.0
17/04/2022,03:25:01,0.002,0.0,0.0,0.0
17/04/2022,03:26:00,0.002,0.0,0.0,0.0
17/04/2022,03:27:00,0.002,0.0,0.0,0.0
17/04/2022,03:28:01,0.002,0.0,0.0,0.0
17/04/2022,03:29:09,0.002,0.0,0.0,0.0
17/04/2022,03:31:01,0.002,0.0,0.0,0.0
17/04/2022,03:32:09,0.002,0.0,0.0,0.0
17/04/2022,03:33:01,0.002,0.0,0.0,0.0
17/04/2022,03:34:00,0.002,0.0,0.0,0.0
17/04/2022,03:35:01,0.002,0.0,0.0,0.0
17/04/2022,03:36:01,0.002,0.0,0.0,0.0
17/04/2022,03:37:01,0.002,0.0,0.0,0.0
17/04/2022,03:38:01,0.002,0.0,0.0,0.0
17/04/2022,03:39:01,0.002,0.0,0.0,0.0
17/04/2022,03:40:01,0.002,0.0,0.0,0.0
17/04/2022,03:41:00,0.002,0.0,0.0,0.0
17/04/2022,03:42:01,0.001,0.0,0.0,0.0
17/04/2022,03:43:01,0.002,0.0,0.0,0.0
17/04/2022,03:44:01,0.002,0.0,0.0,0.0
17/04/2022,03:45:09,0.002,0.0,0.0,0.0
17/04/2022,03:47:01,0.002,0.0,0.0,0.0
17/04/2022,03:47:54,0.002,0.0,0.0,0.0
17/04/2022,03:49:02,0.002,0.0,0.0,0.0
17/04/2022,03:50:01,0.002,0.0,0.0,0.0
17/04/2022,03:51:01,0.002,0.0,0.0,0.0
17/04/2022,03:52:01,0.002,0.0,0.0,0.0
17/04/2022,03:53:00,0.002,0.0,0.0,0.0
17/04/2022,03:54:01,0.002,0.0,0.0,0.0
17/04/2022,03:55:11,0.002,0.0,0.0,0.0
17/04/2022,03:57:01,0.002,0.0,0.0,0.0
17/04/2022,03:58:01,0.002,0.0,0.0,0.0
17/04/2022,03:59:01,0.002,0.0,0.0,0.0
17/04/2022,04:00:01,0.002,0.0,0.0,0.0
17/04/2022,04:01:01,0.002,0.0,0.0,0.0
17/04/2022,04:02:01,0.002,0.0,0.0,0.0
17/04/2022,04:03:00,0.002,0.0,0.0,0.0
17/04/2022,04:04:01,0.002,0.0,0.0,0.0
17/04/2022,04:05:01,0.002,0.0,0.0,0.0
17/04/2022,04:06:01,0.002,0.0,0.0,0.0
17/04/2022,04:07:01,0.002,0.0,0.0,0.0
17/04/2022,04:08:09,0.002,0.0,0.0,0.0
17/04/2022,04:10:01,0.002,0.0,0.0,0.0
17/04/2022,04:11:00,0.002,0.0,0.0,0.0
17/04/2022,04:12:01,0.003,0.0,0.0,0.0
17/04/2022,04:13:01,0.002,0.0,0.0,0.0
17/04/2022,04:14:00,0.002,0.0,0.0,0.0
17/04/2022,04:15:01,0.002,0.0,0.0,0.0
17/04/2022,04:16:01,0.002,0.0,0.0,0.0
17/04/2022,04:17:00,0.002,0.0,0.0,0.0
17/04/2022,04:18:09,0.002,0.0,0.0,0.0
17/04/2022,04:20:01,0.002,0.0,0.0,0.0
17/04/2022,04:21:01,0.002,0.0,0.0,0.0
17/04/2022,04:22:01,0.002,0.0,0.0,0.0
17/04/2022,04:23:00,0.003,0.0,0.0,0.0
17/04/2022,04:24:00,0.002,0.0,0.0,0.0
17/04/2022,04:25:01,0.002,0.0,0.0,0.0
17/04/2022,04:26:00,0.002,0.0,0.0,0.0
17/04/2022,04:27:00,0.002,0.0,0.0,0.0
17/04/2022,04:28:09,0.002,0.0,0.0,0.0
17/04/2022,04:29:00,0.002,0.0,0.0,0.0
17/04/2022,04:30:01,0.002,0.0,0.0,0.0
17/04/2022,04:31:01,0.002,0.0,0.0,0.0
17/04/2022,04:32:01,0.002,0.0,0.0,0.0
17/04/2022,04:33:02,0.002,0.0,0.0,0.0
17/04/2022,04:34:09,0.002,0.0,0.0,0.0
17/04/2022,04:36:02,0.002,0.0,0.0,0.0
17/04/2022,04:37:01,0.002,0.0,0.0,0.0
17/04/2022,04:38:01,0.002,0.0,0.0,0.0
17/04/2022,04:39:01,0.002,0.0,0.0,0.0
17/04/2022,04:40:01,0.002,0.0,0.0,0.0
17/04/2022,04:41:00,0.002,0.0,0.0,0.0
17/04/2022,04:42:01,0.003,0.0,0.0,0.0
17/04/2022,04:43:01,0.002,0.0,0.0,0.0
17/04/2022,04:44:09,0.002,0.0,0.0,0.0
17/04/2022,04:46:01,0.002,0.0,0.0,0.0
17/04/2022,04:47:01,0.002,0.0,0.0,0.0
17/04/2022,04:48:01,0.002,0.0,0.0,0.0
17/04/2022,04:49:00,0.003,0.0,0.0,0.0
17/04/2022,04:50:01,0.002,0.0,0.0,0.0
17/04/2022,04:51:01,0.002,0.0,0.0,0.0
17/04/2022,04:52:01,0.004,0.0,0.0,0.0
17/04/2022,04:53:01,0.002,0.0,0.0,0.0
17/04/2022,04:54:09,0.002,0.0,0.0,0.0
17/04/2022,04:55:01,0.003,0.0,0.0,0.0
17/04/2022,04:56:01,0.003,0.0,0.0,0.0
17/04/2022,04:57:01,0.003,0.0,0.0,0.0
17/04/2022,04:58:01,0.003,0.0,0.0,0.0
17/04/2022,04:59:01,0.003,0.0,0.0,0.0
17/04/2022,05:00:02,0.003,0.0,0.0,0.0
17/04/2022,05:01:01,0.004,0.0,0.0,0.0
17/04/2022,05:02:01,0.004,0.0,0.0,0.0
17/04/2022,05:03:01,0.003,0.0,0.0,0.0
17/04/2022,05:04:10,0.003,0.0,0.0,0.0
17/04/2022,05:05:01,0.003,0.0,0.0,0.0
17/04/2022,05:06:01,0.004,0.0,0.0,0.0
17/04/2022,05:07:01,0.004,0.0,0.0,0.0
17/04/2022,05:08:01,0.004,0.0,0.0,0.0
17/04/2022,05:09:01,0.004,0.0,0.0,0.0
17/04/2022,05:10:01,0.004,0.0,0.0,0.0
17/04/2022,05:11:00,0.004,0.0,0.0,0.0
17/04/2022,05:12:01,0.004,0.0,0.0,0.0
17/04/2022,05:13:00,0.005,0.0,0.0,0.0
17/04/2022,05:14:01,0.004,0.0,0.0,0.0
17/04/2022,05:15:01,0.005,0.0,0.0,0.0
17/04/2022,05:16:01,0.004,0.0,0.0,0.0
17/04/2022,05:17:09,0.005,0.0,0.0,0.0
17/04/2022,05:18:00,0.005,0.0,0.0,0.0
17/04/2022,05:19:01,0.006,0.0,0.0,0.0
17/04/2022,05:20:02,0.006,0.0,0.0,0.0
17/04/2022,05:21:00,0.006,0.0,0.0,0.0
17/04/2022,05:22:01,0.006,0.0,0.0,0.0
17/04/2022,05:23:01,0.006,0.0,0.0,0.0
17/04/2022,05:24:01,0.007,0.0,0.0,0.0
17/04/2022,05:25:01,0.007,0.0,0.0,0.0
17/04/2022,05:26:01,0.007,0.0,0.0,0.0
17/04/2022,05:27:09,0.007,0.0,0.001,0.001
17/04/2022,05:29:01,0.008,0.0,0.001,0.0
17/04/2022,05:30:01,0.009,0.0,0.001,0.0
17/04/2022,05:31:01,0.009,0.0,0.001,0.0
17/04/2022,05:32:01,0.009,0.0,0.001,0.0
17/04/2022,05:33:01,0.009,0.0,0.001,0.0
17/04/2022,05:34:01,0.010,0.0,0.002,0.001
17/04/2022,05:35:01,0.010,0.0,0.002,0.0
17/04/2022,05:36:13,0.010,0.0,0.002,0.0
17/04/2022,05:38:01,0.011,0.0,0.002,0.0
17/04/2022,05:39:01,0.012,0.0,0.002,0.0
17/04/2022,05:40:01,0.012,0.0,0.003,0.001
17/04/2022,05:41:01,0.013,0.0,0.003,0.0
17/04/2022,05:42:01,0.013,0.0,0.003,0.0
17/04/2022,05:43:01,0.013,0.0,0.003,0.0
17/04/2022,05:44:01,0.014,0.0,0.004,0.001
17/04/2022,05:45:01,0.014,0.0,0.004,0.0
17/04/2022,05:46:00,0.014,0.0,0.004,0.0
17/04/2022,05:47:01,0.016,0.0,0.004,0.0
17/04/2022,05:48:01,0.016,0.0,0.005,0.001
17/04/2022,05:49:01,0.016,0.0,0.005,0.0
17/04/2022,05:50:09,0.018,0.0,0.005,0.0
17/04/2022,05:51:00,0.018,0.0,0.005,0.0
17/04/2022,05:52:01,0.018,0.0,0.006,0.001
17/04/2022,05:53:01,0.019,0.0,0.006,0.0
17/04/2022,05:54:01,0.020,0.0,0.006,0.0
17/04/2022,05:55:00,0.021,0.0,0.007,0.001
17/04/2022,05:56:01,0.021,0.0,0.007,0.0
17/04/2022,05:57:01,0.021,0.0,0.007,0.0
17/04/2022,05:58:01,0.022,0.0,0.008,0.001
17/04/2022,05:59:00,0.023,0.0,0.008,0.0
17/04/2022,06:00:09,0.024,0.0,0.009,0.001
17/04/2022,06:02:01,0.026,0.0,0.009,0.0
17/04/2022,06:03:00,0.025,0.0,0.01,0.001
17/04/2022,06:04:01,0.027,0.0,0.01,0.0
17/04/2022,06:05:01,0.029,0.0,0.011,0.001
17/04/2022,06:06:00,0.029,0.0,0.011,0.0
17/04/2022,06:07:02,0.030,0.0,0.012,0.001
17/04/2022,06:08:01,0.031,0.0,0.012,0.0
17/04/2022,06:09:01,0.033,0.0,0.013,0.001
17/04/2022,06:10:01,0.034,0.0,0.013,0.0
17/04/2022,06:11:01,0.034,0.0,0.014,0.001
17/04/2022,06:12:01,0.035,0.0,0.014,0.0
17/04/2022,06:13:01,0.036,0.0,0.015,0.001
17/04/2022,06:14:01,0.037,0.0,0.016,0.001
17/04/2022,06:15:01,0.038,0.0,0.016,0.0
17/04/2022,06:16:01,0.039,0.0,0.017,0.001
17/04/2022,06:17:01,0.042,0.0,0.018,0.001
17/04/2022,06:18:01,0.042,0.0,0.018,0.0
17/04/2022,06:19:01,0.043,0.0,0.019,0.001
17/04/2022,06:20:01,0.044,0.0,0.02,0.001
17/04/2022,06:21:01,0.046,0.0,0.02,0.0
17/04/2022,06:22:01,0.047,0.0,0.021,0.001
17/04/2022,06:23:01,0.048,0.0,0.022,0.001
17/04/2022,06:24:10,0.050,0.0,0.023,0.001
17/04/2022,06:25:01,0.051,0.0,0.024,0.001
17/04/2022,06:26:01,0.053,0.0,0.025,0.001
17/04/2022,06:27:01,0.054,0.0,0.025,0.0
17/04/2022,06:28:01,0.054,0.0,0.026,0.001
17/04/2022,06:29:01,0.057,0.0,0.027,0.001
17/04/2022,06:30:01,0.059,0.0,0.028,0.001
17/04/2022,06:31:01,0.060,0.0,0.029,0.001
17/04/2022,06:32:01,0.062,0.0,0.03,0.001
17/04/2022,06:33:01,0.064,0.0,0.031,0.001
17/04/2022,06:34:10,0.065,0.0,0.032,0.001
17/04/2022,06:36:01,0.068,0.0,0.035,0.003
17/04/2022,06:37:01,0.069,0.0,0.036,0.001
17/04/2022,06:38:01,0.072,0.0,0.037,0.001
17/04/2022,06:39:01,0.073,0.0,0.038,0.001
17/04/2022,06:40:01,0.076,0.0,0.039,0.001
17/04/2022,06:41:01,0.077,0.0,0.041,0.002
17/04/2022,06:42:01,0.079,0.0,0.042,0.001
17/04/2022,06:43:01,0.081,0.0,0.043,0.001
17/04/2022,06:44:09,0.084,0.0,0.045,0.002
17/04/2022,06:45:01,0.084,0.0,0.046,0.001
17/04/2022,06:46:02,0.087,0.0,0.047,0.001
17/04/2022,06:47:09,0.089,0.0,0.049,0.002
17/04/2022,06:48:01,0.091,0.0,0.05,0.001
17/04/2022,06:49:01,0.092,0.0,0.052,0.002
17/04/2022,06:50:09,0.095,0.0,0.054,0.002
17/04/2022,06:52:03,0.099,0.0,0.057,0.003
17/04/2022,06:53:01,0.101,0.0,0.058,0.001
17/04/2022,06:54:01,0.103,0.0,0.06,0.002
17/04/2022,06:55:01,0.105,0.0,0.062,0.002
17/04/2022,06:56:01,0.107,0.0,0.064,0.002
17/04/2022,06:57:01,0.111,0.0,0.065,0.001
17/04/2022,06:58:01,0.113,0.0,0.067,0.002
17/04/2022,06:59:01,0.115,0.0,0.069,0.002
17/04/2022,07:00:09,0.118,0.0,0.071,0.002
17/04/2022,07:02:02,0.124,0.0,0.075,0.004
17/04/2022,07:03:01,0.126,0.0,0.077,0.002
17/04/2022,07:04:01,0.128,0.0,0.079,0.002
17/04/2022,07:05:01,0.130,0.0,0.082,0.003
17/04/2022,07:06:01,0.133,0.0,0.084,0.002
17/04/2022,07:07:09,0.137,0.0,0.086,0.002
17/04/2022,07:08:00,0.137,0.0,0.088,0.002
17/04/2022,07:09:01,0.141,0.0,0.091,0.003
17/04/2022,07:10:10,0.143,0.0,0.093,0.002
17/04/2022,07:11:00,0.146,0.0,0.095,0.002
17/04/2022,07:12:10,0.149,0.0,0.098,0.003
17/04/2022,07:13:09,0.152,0.0,0.101,0.003
17/04/2022,07:15:09,0.159,0.0,0.106,0.005
17/04/2022,07:16:01,0.160,0.0,0.108,0.002
17/04/2022,07:17:10,0.162,0.0,0.111,0.003
17/04/2022,07:18:01,0.166,0.0,0.114,0.003
17/04/2022,07:19:01,0.168,0.0,0.116,0.002
17/04/2022,07:20:10,0.173,0.0,0.12,0.004
17/04/2022,07:21:01,0.176,0.0,0.122,0.002
17/04/2022,07:22:02,0.179,0.0,0.125,0.003
17/04/2022,07:23:01,0.183,0.0,0.128,0.003
17/04/2022,07:24:01,0.185,0.0,0.131,0.003
17/04/2022,07:25:01,0.189,0.0,0.134,0.003
17/04/2022,07:26:01,0.191,0.0,0.137,0.003
17/04/2022,07:27:01,0.191,0.0,0.141,0.004
17/04/2022,07:28:01,0.192,0.0,0.144,0.003
17/04/2022,07:29:01,0.195,0.0,0.147,0.003
17/04/2022,07:30:10,0.199,0.0,0.151,0.004
17/04/2022,07:31:01,0.203,0.0,0.154,0.003
17/04/2022,07:32:01,0.206,0.0,0.157,0.003
17/04/2022,07:33:01,0.210,0.0,0.161,0.004
17/04/2022,07:34:01,0.215,0.0,0.164,0.003
17/04/2022,07:35:01,0.219,1.0,0.168,0.004
17/04/2022,07:36:01,0.222,1.0,0.171,0.003
17/04/2022,07:37:01,0.228,1.0,0.175,0.004
17/04/2022,07:38:01,0.231,1.0,0.179,0.004
17/04/2022,07:39:02,0.237,1.0,0.183,0.004
17/04/2022,07:40:01,0.240,1.0,0.187,0.004
17/04/2022,07:41:02,0.245,1.0,0.191,0.004
17/04/2022,07:42:01,0.250,1.0,0.195,0.004
17/04/2022,07:43:09,0.253,1.0,0.2,0.005
17/04/2022,07:44:00,0.256,1.0,0.203,0.003
17/04/2022,07:45:01,0.262,1.0,0.208,0.005
17/04/2022,07:46:10,0.266,1.0,0.213,0.005
17/04/2022,07:48:02,0.272,1.0,0.221,0.008
17/04/2022,07:49:02,0.276,1.0,0.226,0.005
17/04/2022,07:50:01,0.279,1.0,0.23,0.004
17/04/2022,07:51:01,0.288,1.0,0.235,0.005
17/04/2022,07:52:01,0.294,1.0,0.24,0.005
17/04/2022,07:53:01,0.298,1.0,0.245,0.005
17/04/2022,07:54:01,0.300,1.0,0.25,0.005
17/04/2022,07:55:02,0.307,1.0,0.255,0.005
17/04/2022,07:56:01,0.310,1.0,0.26,0.005
17/04/2022,07:57:11,0.313,1.0,0.266,0.006
17/04/2022,07:59:02,0.319,1.0,0.276,0.01
17/04/2022,08:00:01,0.321,1.0,0.281,0.005
17/04/2022,08:01:01,0.323,1.0,0.286,0.005
17/04/2022,08:02:01,0.326,1.0,0.292,0.006
17/04/2022,08:03:01,0.326,1.0,0.297,0.005
17/04/2022,08:04:01,0.329,1.0,0.303,0.006
17/04/2022,08:05:01,0.334,1.0,0.308,0.005
17/04/2022,08:06:01,0.341,1.0,0.314,0.006
17/04/2022,08:07:09,0.345,1.0,0.32,0.006
17/04/2022,08:08:01,0.352,1.0,0.325,0.005
17/04/2022,08:09:01,0.358,1.0,0.331,0.006
17/04/2022,08:10:01,0.363,1.0,0.337,0.006
17/04/2022,08:11:01,0.365,1.0,0.343,0.006
17/04/2022,08:12:01,0.372,1.0,0.349,0.006
17/04/2022,08:13:01,0.376,1.0,0.356,0.007
17/04/2022,08:14:01,0.383,1.0,0.362,0.006
17/04/2022,08:15:01,0.391,1.0,0.369,0.007
17/04/2022,08:16:01,0.396,1.0,0.375,0.006
17/04/2022,08:17:01,0.403,1.0,0.382,0.007
17/04/2022,08:18:01,0.409,1.0,0.388,0.006
17/04/2022,08:19:16,0.425,1.0,0.397,0.009
17/04/2022,08:21:01,0.434,1.0,0.41,0.013
17/04/2022,08:22:01,0.441,1.0,0.417,0.007
17/04/2022,08:23:01,0.450,1.0,0.425,0.008
17/04/2022,08:24:03,0.455,1.0,0.432,0.007
17/04/2022,08:25:01,0.456,1.0,0.44,0.008
17/04/2022,08:26:01,0.462,1.0,0.447,0.007
17/04/2022,08:27:01,0.454,1.0,0.455,0.008
17/04/2022,08:28:01,0.485,1.0,0.463,0.008
17/04/2022,08:29:01,0.494,1.0,0.471,0.008
17/04/2022,08:30:01,0.503,1.0,0.479,0.008
17/04/2022,08:31:02,0.510,1.0,0.488,0.009
17/04/2022,08:32:01,0.519,1.0,0.496,0.008
17/04/2022,08:33:17,0.525,1.0,0.507,0.011
17/04/2022,08:35:02,0.542,1.0,0.523,0.016
17/04/2022,08:36:01,0.548,1.0,0.532,0.009
17/04/2022,08:37:02,0.558,1.0,0.541,0.009
17/04/2022,08:38:01,0.560,1.0,0.55,0.009
17/04/2022,08:39:01,0.567,1.0,0.559,0.009
17/04/2022,08:40:01,0.572,1.0,0.569,0.01
17/04/2022,08:41:01,0.591,1.0,0.579,0.01
17/04/2022,08:42:02,0.603,1.0,0.589,0.01
17/04/2022,08:43:10,0.607,1.0,0.6,0.011
17/04/2022,08:44:01,0.614,1.0,0.609,0.009
17/04/2022,08:45:01,0.623,1.0,0.619,0.01
17/04/2022,08:46:01,0.632,1.0,0.63,0.011
17/04/2022,08:47:01,0.637,1.0,0.641,0.011
17/04/2022,08:48:01,0.638,1.0,0.651,0.01
17/04/2022,08:49:01,0.646,1.0,0.662,0.011
17/04/2022,08:50:09,0.654,2.0,0.674,0.012
17/04/2022,08:51:00,0.669,2.0,0.683,0.009
17/04/2022,08:52:01,0.669,2.0,0.695,0.012
17/04/2022,08:53:01,0.685,2.0,0.706,0.011
17/04/2022,08:54:01,0.683,2.0,0.718,0.012
17/04/2022,08:55:01,0.697,2.0,0.729,0.011
17/04/2022,08:56:02,0.694,2.0,0.741,0.012
17/04/2022,08:57:01,0.696,2.0,0.752,0.011
17/04/2022,08:58:02,0.698,2.0,0.764,0.012
17/04/2022,08:59:01,0.721,2.0,0.776,0.012
17/04/2022,09:00:01,0.719,2.0,0.788,0.012
17/04/2022,09:01:01,0.727,2.0,0.8,0.012
17/04/2022,09:02:02,0.722,2.0,0.812,0.012
17/04/2022,09:03:01,0.722,2.0,0.824,0.012
17/04/2022,09:04:01,0.724,2.0,0.836,0.012
17/04/2022,09:05:01,0.724,2.0,0.848,0.012
17/04/2022,09:06:01,0.735,2.0,0.86,0.012
17/04/2022,09:07:01,0.740,2.0,0.872,0.012
17/04/2022,09:08:01,0.744,2.0,0.885,0.013
17/04/2022,09:09:01,0.742,2.0,0.897,0.012
17/04/2022,09:10:02,0.740,2.0,0.91,0.013
17/04/2022,09:11:01,0.734,2.0,0.921,0.011
17/04/2022,09:12:10,0.738,2.0,0.936,0.015
17/04/2022,09:13:01,0.731,2.0,0.946,0.01
17/04/2022,09:14:01,0.742,2.0,0.958,0.012
17/04/2022,09:15:10,0.759,2.0,0.973,0.015
17/04/2022,09:16:01,0.769,2.0,0.983,0.01
17/04/2022,09:17:02,0.774,2.0,0.997,0.014
17/04/2022,09:18:01,0.779,2.0,1.009,0.012
17/04/2022,09:19:01,0.789,2.0,1.023,0.014
17/04/2022,09:20:01,0.792,2.0,1.036,0.013
17/04/2022,09:21:01,0.804,2.0,1.049,0.013
17/04/2022,09:22:02,0.780,2.0,1.062,0.013
17/04/2022,09:23:01,0.783,2.0,1.075,0.013
17/04/2022,09:24:02,0.801,2.0,1.089,0.014
17/04/2022,09:25:10,0.807,2.0,1.104,0.015
17/04/2022,09:27:02,0.812,2.0,1.129,0.025
17/04/2022,09:28:02,0.798,2.0,1.142,0.013
17/04/2022,09:29:03,0.789,2.0,1.155,0.013
17/04/2022,09:30:01,0.783,2.0,1.168,0.013
17/04/2022,09:31:01,0.827,2.0,1.182,0.014
17/04/2022,09:32:02,0.829,2.0,1.196,0.014
17/04/2022,09:33:02,0.853,2.0,1.21,0.014
17/04/2022,09:34:01,0.849,2.0,1.224,0.014
17/04/2022,09:35:01,0.851,2.0,1.238,0.014
17/04/2022,09:36:02,0.845,2.0,1.252,0.014
17/04/2022,09:37:01,0.848,2.0,1.266,0.014
17/04/2022,09:38:10,0.848,2.0,1.283,0.017
17/04/2022,09:39:01,0.825,2.0,1.295,0.012
17/04/2022,09:40:01,0.866,2.0,1.309,0.014
17/04/2022,09:41:10,0.869,2.0,1.325,0.016
17/04/2022,09:43:02,0.892,2.0,1.352,0.027
17/04/2022,09:44:02,0.923,2.0,1.368,0.016
17/04/2022,09:45:01,0.914,2.0,1.383,0.015
17/04/2022,09:46:01,0.900,2.0,1.398,0.015
17/04/2022,09:47:01,0.935,2.0,1.413,0.015
17/04/2022,09:48:02,0.948,2.0,1.429,0.016
17/04/2022,09:49:01,0.959,2.0,1.444,0.015
17/04/2022,09:50:02,0.969,2.0,1.461,0.017
17/04/2022,09:51:09,0.990,2.0,1.479,0.018
17/04/2022,09:53:02,1.002,2.0,1.51,0.031
17/04/2022,09:54:01,1.022,2.0,1.527,0.017
17/04/2022,09:55:01,1.007,2.0,1.544,0.017
17/04/2022,09:56:01,1.005,2.0,1.561,0.017
17/04/2022,09:57:01,1.026,2.0,1.578,0.017
17/04/2022,09:58:02,1.035,2.0,1.595,0.017
17/04/2022,09:59:02,1.027,2.0,1.612,0.017
17/04/2022,10:00:01,1.009,2.0,1.629,0.017
17/04/2022,10:01:01,0.992,2.0,1.646,0.017
17/04/2022,10:02:01,0.992,2.0,1.662,0.016
17/04/2022,10:03:01,0.976,2.0,1.678,0.016
17/04/2022,10:04:10,0.989,2.0,1.697,0.019
17/04/2022,10:05:00,0.970,2.0,1.711,0.014
17/04/2022,10:06:01,0.953,2.0,1.728,0.017
17/04/2022,10:07:10,0.922,2.0,1.745,0.017
17/04/2022,10:09:02,0.928,2.0,1.773,0.028
17/04/2022,10:10:10,0.930,2.0,1.791,0.018
17/04/2022,10:11:01,0.930,2.0,1.804,0.013
17/04/2022,10:12:02,0.954,2.0,1.82,0.016
17/04/2022,10:13:01,0.954,2.0,1.835,0.015
17/04/2022,10:14:02,0.962,2.0,1.852,0.017
17/04/2022,10:15:01,0.979,2.0,1.868,0.016
17/04/2022,10:16:02,0.979,2.0,1.884,0.016
17/04/2022,10:17:02,1.037,2.0,1.901,0.017
17/04/2022,10:18:01,1.061,2.0,1.919,0.018
17/04/2022,10:19:01,1.072,2.0,1.936,0.017
17/04/2022,10:20:10,1.099,3.0,1.957,0.021
17/04/2022,10:21:01,1.121,3.0,1.973,0.016
17/04/2022,10:22:01,1.103,3.0,1.991,0.018
17/04/2022,10:23:10,1.120,3.0,2.012,0.021
17/04/2022,10:25:02,1.103,3.0,2.047,0.035
17/04/2022,10:25:52,1.104,3.0,2.063,0.016
17/04/2022,10:27:02,1.110,3.0,2.084,0.021
17/04/2022,10:28:01,1.155,3.0,2.103,0.019
17/04/2022,10:29:01,1.179,3.0,2.122,0.019
17/04/2022,10:30:01,1.179,3.0,2.142,0.02
17/04/2022,10:31:01,1.201,3.0,2.162,0.02
17/04/2022,10:32:02,1.215,3.0,2.182,0.02
17/04/2022,10:33:01,1.226,3.0,2.202,0.02
17/04/2022,10:34:01,1.219,3.0,2.222,0.02
17/04/2022,10:35:02,1.213,3.0,2.243,0.021
17/04/2022,10:36:09,1.224,3.0,2.266,0.023
17/04/2022,10:38:02,1.232,3.0,2.304,0.038
17/04/2022,10:39:10,1.229,3.0,2.327,0.023
17/04/2022,10:41:02,1.194,3.0,2.365,0.038
17/04/2022,10:42:01,1.183,3.0,2.385,0.02
17/04/2022,10:43:01,1.231,3.0,2.405,0.02